Hurghada, Egypt

2:16 AM EET on March 24, 2017 (GMT +0200)
Hurghada International

Weather History for HEGN - December, 2012

Change the Weather History Date:

Wednesday, December 12, 2012

  Actual Average Record
Temperature  
Mean Temperature 67 °F -  
Max Temperature 79 °F 70 °F 89 °F (2014)
Min Temperature 55 °F 53 °F 49 °F (2013)
Cooling Degree Days 2    
Growing Degree Days 17 (Base 50)    
Moisture  
Dew Point 47 °F    
Average Humidity 52    
Maximum Humidity 67    
Minimum Humidity 28    
Precipitation  
Precipitation 0.00 in - - ()
Sea Level Pressure  
Sea Level Pressure 30.04 in    
Wind  
Wind Speed 8 mph ()    
Max Wind Speed 16 mph    
Max Gust Speed -    
Visibility 6.0 miles    
Events      
Averages and records for this station are not official NWS values.
T = Trace of Precipitation, MM = Missing Value Source: Averaged Metar Reports

Daily Weather History Graph

Daily Weather History Graph

Search for Another Location

Airport or City:

Trip Planner

Search our weather history database for the weather conditions in past years. The results will help you decide how hot, cold, wet, or windy it might be!

Date:

Astronomy

Dec. 12, 2012 Rise Set
Actual Time 6:25 AM EET 4:52 PM EET
Civil Twilight 5:59 AM EET 5:18 PM EET
Nautical Twilight 5:30 AM EET 5:47 PM EET
Astronomical Twilight 5:02 AM EET 6:15 PM EET
Moon 5:08 AM EET (12/12) 4:06 PM EET (12/12)
Length of Visible Light 11h 18m
Length of Day
10h 27m
Waning Crescent, 1% of the Moon is Illuminated
Dec 12
Waning Crescent
Dec 13
New
Dec 20
First Quarter
Dec 28
Full
Jan 5
Last Quarter

Hourly Weather History & Observations

Time (EET) Temp. Dew Point Humidity Pressure Visibility Wind Dir Wind Speed Gust Speed Precip Events Conditions
12:00 AM 57.2 °F 41.0 °F 55% 30.06 in - WNW 8.1 mph - N/A   Clear
1:00 AM 57.2 °F 42.8 °F 59% 30.06 in - WNW 8.1 mph - N/A   Clear
2:00 AM 57 °F 42 °F 46% 30.08 in 6 mi WNW 8.1 mph - -  
2:00 AM 57.2 °F 42.8 °F 59% 30.06 in - WNW 8.1 mph - N/A   Clear
3:00 AM 57.2 °F 44.6 °F 63% 30.04 in - WNW 9.2 mph - N/A   Clear
4:00 AM 57.2 °F 44.6 °F 63% 30.04 in - WNW 13.8 mph - N/A   Clear
5:00 AM 57.2 °F 44.6 °F 63% 30.04 in - WNW 11.5 mph - N/A   Clear
6:00 AM 55.4 °F 44.6 °F 67% 30.04 in - WNW 11.5 mph - N/A   Clear
7:00 AM 57.2 °F 44.6 °F 63% 30.06 in - WNW 11.5 mph - N/A   Clear
8:00 AM 62 °F 46 °F 46% 30.09 in 6 mi WNW 13.8 mph - -  
8:00 AM 60.8 °F 46.4 °F 59% 30.09 in - WNW 13.8 mph - N/A   Clear
9:00 AM 66.2 °F 48.2 °F 52% 30.09 in - NW 16.1 mph - N/A   Clear
10:00 AM 68.0 °F 46.4 °F 46% 30.09 in - NNW 11.5 mph - N/A   Clear
11:00 AM 69.8 °F 46.4 °F 43% 30.09 in - NW 10.4 mph - N/A   Clear
12:00 PM 75.2 °F 48.2 °F 38% 30.04 in - NNW 3.5 mph - N/A   Clear
1:00 PM 78.8 °F 51.8 °F 39% 30.01 in - NNE 4.6 mph - N/A   Clear
2:00 PM 79 °F 51 °F 28% 30.01 in 6 mi NE 4.6 mph - -  
2:00 PM 78.8 °F 51.8 °F 39% 30.01 in - NE 4.6 mph - N/A   Clear
3:00 PM 78.8 °F 53.6 °F 42% 29.98 in - NE 5.8 mph - N/A   Clear
4:00 PM 75.2 °F 50.0 °F 41% 29.98 in - NNE 4.6 mph - N/A   Clear
5:00 PM 69.8 °F 48.2 °F 46% 29.98 in - North 3.5 mph - N/A   Clear
6:00 PM 68.0 °F 48.2 °F 49% 30.01 in - NNW 3.5 mph - N/A   Clear
7:00 PM 64.4 °F 48.2 °F 56% 30.04 in - WNW 5.8 mph - N/A   Clear
8:00 PM 63 °F 47 °F 45% 30.05 in 6 mi WNW 6.9 mph - -  
8:00 PM 62.6 °F 46.4 °F 55% 30.04 in - WNW 6.9 mph - N/A   Clear
9:00 PM 60.8 °F 46.4 °F 59% 30.04 in - NW 9.2 mph - N/A   Clear
10:00 PM 60.8 °F 48.2 °F 63% 30.04 in - NW 16.1 mph - N/A   Clear
11:00 PM 59.0 °F 48.2 °F 67% 30.04 in - WNW 10.4 mph - N/A   Clear